Weather History for KEVM - September, 2014

Change the Weather History Date:

Tuesday, September 2, 2014

  Actual Average Record
Temperature  
Mean Temperature 58 °F -  
Max Temperature 71 °F 72 °F 86 °F (2004)
Min Temperature 44 °F 49 °F 41 °F (2013)
Degree Days  
Heating Degree Days 8    
Growing Degree Days 8 (Base 50)    
Moisture  
Dew Point 51 °F    
Average Humidity 83    
Maximum Humidity 100    
Minimum Humidity 41    
Precipitation  
Precipitation 0.01 in - - ()
Sea Level Pressure  
Sea Level Pressure 29.81 in    
Wind  
Wind Speed 5 mph (WSW)    
Max Wind Speed 20 mph    
Max Gust Speed 29 mph    
Visibility 8 miles    
Events Fog , Rain , Thunderstorm    
Averages and records for this station are not official NWS values.
T = Trace of Precipitation, MM = Missing Value Source: NWS Daily Summary

Daily Weather History Graph

Daily Weather History Graph

Search for Another Location

Airport or City:

Trip Planner

Search our weather history database for the weather conditions in past years. The results will help you decide how hot, cold, wet, or windy it might be!

Date:

Astronomy

Sep. 02, 2014 Rise Set
Actual Time 6:30 AM CDT 7:48 PM CDT
Civil Twilight 5:58 AM CDT 8:19 PM CDT
Nautical Twilight 5:20 AM CDT 8:57 PM CDT
Astronomical Twilight 4:38 AM CDT 9:38 PM CDT
Moon 2:44 PM CDT (9/2) No Moon Set
Length of Visible Light 14h 21m
Length of Day
13h 17m
First Quarter, 53% of the Moon is Illuminated
Sep 2
First Quarter
Sep 8
Full
Sep 15
Last Quarter
Sep 24
New
Oct 1
First Quarter

Hourly Weather History & Observations

Time (CDT) Temp. Windchill Dew Point Humidity Pressure Visibility Wind Dir Wind Speed Gust Speed Precip Events Conditions
12:11 AM 53.6 °F - 51.8 °F 94% 29.77 in 10.0 mi West 3.5 mph - N/A   Scattered Clouds
12:31 AM 57.2 °F - 53.6 °F 88% 29.77 in 10.0 mi West 6.9 mph - N/A   Clear
12:51 AM 57.2 °F - 53.6 °F 88% 29.77 in 10.0 mi West 5.8 mph - N/A   Clear
1:11 AM 55.4 °F - 53.6 °F 94% 29.77 in 10.0 mi West 5.8 mph - N/A   Clear
1:32 AM 53.6 °F - 51.8 °F 94% 29.78 in 10.0 mi West 4.6 mph - N/A   Clear
1:51 AM 53.6 °F - 51.8 °F 94% 29.78 in 10.0 mi WSW 3.5 mph - N/A   Clear
2:11 AM 51.8 °F - 50.0 °F 94% 29.78 in 10.0 mi WSW 3.5 mph - N/A   Clear
2:32 AM 51.8 °F - 51.8 °F 100% 29.78 in 10.0 mi West 3.5 mph - N/A   Clear
2:51 AM 51.8 °F - 51.8 °F 100% 29.79 in 10.0 mi WSW 4.6 mph - N/A   Clear
3:11 AM 51.8 °F - 51.8 °F 100% 29.79 in 10.0 mi WSW 4.6 mph - N/A   Clear
3:30 AM 51.8 °F - 51.8 °F 100% 29.79 in 10.0 mi WSW 4.6 mph - N/A   Clear
3:51 AM 50.0 °F - 50.0 °F 100% 29.80 in 2.5 mi West 4.6 mph - N/A   Clear
4:11 AM 50.0 °F - 50.0 °F 100% 29.80 in 5.0 mi Calm Calm - N/A   Clear
4:32 AM 50.0 °F - 50.0 °F 100% 29.80 in 0.5 mi Calm Calm - N/A Fog Fog
4:51 AM 50.0 °F - 50.0 °F 100% 29.81 in 0.5 mi WSW 3.5 mph - N/A Fog Fog
5:11 AM 50.0 °F - 50.0 °F 100% 29.81 in 0.5 mi Calm Calm - N/A Fog Fog
5:32 AM 44.6 °F 43.1 °F 44.6 °F 100% 29.81 in 0.2 mi SW 3.5 mph - N/A Fog Fog
5:51 AM 44.6 °F - 44.6 °F 100% 29.82 in 0.2 mi Calm Calm - N/A Fog Fog
6:11 AM 44.6 °F - 44.6 °F 100% 29.82 in 0.2 mi Calm Calm - 0.01 in Fog Fog
6:32 AM 44.6 °F - 44.6 °F 100% 29.82 in 0.2 mi Calm Calm - 0.01 in Fog Fog
6:51 AM 46.4 °F - 46.4 °F 100% 29.82 in 0.2 mi Calm Calm - 0.01 in Fog Fog
7:11 AM 44.6 °F - 44.6 °F 100% 29.82 in 0.2 mi Calm Calm - N/A Fog Fog
7:32 AM 46.4 °F 45.2 °F 46.4 °F 100% 29.83 in 0.5 mi SW 3.5 mph - N/A Fog Fog
7:51 AM 51.8 °F - 51.8 °F 100% 29.83 in 3.0 mi WSW 4.6 mph - N/A   Overcast
8:11 AM 51.8 °F - 51.8 °F 100% 29.83 in 10.0 mi WSW 3.5 mph - N/A   Mostly Cloudy
8:32 AM 51.8 °F - 51.8 °F 100% 29.83 in 10.0 mi West 3.5 mph - N/A   Clear
8:51 AM 51.8 °F - 51.8 °F 100% 29.83 in 10.0 mi WSW 3.5 mph - N/A   Clear
9:11 AM 53.6 °F - 53.6 °F 100% 29.83 in 10.0 mi West 3.5 mph - N/A   Clear
9:32 AM 57.2 °F - 55.4 °F 94% 29.83 in 10.0 mi WSW 4.6 mph - N/A   Clear
9:51 AM 60.8 °F - 53.6 °F 77% 29.83 in 10.0 mi SW 6.9 mph - N/A   Clear
10:11 AM 62.6 °F - 53.6 °F 72% 29.83 in 10.0 mi SW 6.9 mph - N/A   Clear
10:31 AM 64.4 °F - 53.6 °F 68% 29.83 in 10.0 mi SW 6.9 mph - N/A   Clear
10:51 AM 64.4 °F - 53.6 °F 68% 29.83 in 10.0 mi SW 8.1 mph - N/A   Clear
11:11 AM 69.8 °F - 53.6 °F 56% 29.83 in 10.0 mi WSW 11.5 mph - N/A   Clear
11:32 AM 69.8 °F - 51.8 °F 53% 29.83 in 10.0 mi WSW 9.2 mph - N/A   Clear
11:51 AM 71.6 °F - 50.0 °F 46% 29.82 in 10.0 mi WSW 13.8 mph 18.4 mph N/A   Clear
12:11 PM 71.6 °F - 50.0 °F 46% 29.82 in 10.0 mi West 12.7 mph 18.4 mph N/A   Clear
12:32 PM 71.6 °F - 50.0 °F 46% 29.81 in 10.0 mi WSW 13.8 mph 19.6 mph N/A   Clear
12:51 PM 71.6 °F - 48.2 °F 43% 29.81 in 10.0 mi West 15.0 mph - N/A   Clear
1:11 PM 71.6 °F - 46.4 °F 41% 29.81 in 10.0 mi WSW 17.3 mph 21.9 mph N/A   Clear
1:31 PM 71.6 °F - 46.4 °F 41% 29.81 in 10.0 mi West 15.0 mph 25.3 mph N/A   Clear
1:52 PM 71.6 °F - 46.4 °F 41% 29.81 in 10.0 mi West 17.3 mph 21.9 mph N/A   Clear
2:11 PM 71.6 °F - 46.4 °F 41% 29.81 in 10.0 mi WSW 15.0 mph 20.7 mph N/A   Clear
2:31 PM 71.6 °F - 50.0 °F 46% 29.81 in 10.0 mi West 9.2 mph 16.1 mph N/A   Clear
2:52 PM 71.6 °F - 50.0 °F 46% 29.80 in 10.0 mi West 8.1 mph - N/A   Clear
3:11 PM 69.8 °F - 50.0 °F 49% 29.80 in 10.0 mi West 5.8 mph - N/A   Scattered Clouds
3:31 PM 69.8 °F - 46.4 °F 43% 29.81 in 10.0 mi West 13.8 mph 23.0 mph N/A   Scattered Clouds
3:51 PM 64.4 °F - 44.6 °F 49% 29.81 in 10.0 mi West 8.1 mph 16.1 mph N/A Thunderstorm Unknown
4:11 PM 62.6 °F - 50.0 °F 63% 29.82 in 10.0 mi SW 5.8 mph - N/A Rain , Thunderstorm Light Thunderstorms and Rain
4:32 PM 59.0 °F - 50.0 °F 72% 29.84 in 7.0 mi NW 17.3 mph 28.8 mph N/A Rain , Thunderstorm Thunderstorms and Rain
4:51 PM 57.2 °F - 50.0 °F 77% 29.88 in 7.0 mi West 15.0 mph 23.0 mph N/A Rain , Thunderstorm Thunderstorms and Rain
5:11 PM 57.2 °F - 53.6 °F 88% 29.83 in 10.0 mi Calm Calm - N/A Rain Light Rain
5:51 PM 60.8 °F - 55.4 °F 82% 29.82 in 10.0 mi Calm Calm - N/A   Clear
6:11 PM 59.0 °F - 55.4 °F 88% 29.82 in 10.0 mi SE 4.6 mph - N/A   Clear
6:32 PM 59.0 °F - 55.4 °F 88% 29.82 in 10.0 mi ESE 3.5 mph - N/A   Clear
6:51 PM 59.0 °F - 55.4 °F 88% 29.82 in 10.0 mi Calm Calm - N/A   Clear
7:12 PM 59.0 °F - 53.6 °F 82% 29.81 in 10.0 mi Calm Calm - N/A   Clear
7:31 PM 57.2 °F - 53.6 °F 88% 29.81 in 10.0 mi Calm Calm - N/A   Clear
7:51 PM 57.2 °F - 55.4 °F 94% 29.82 in 7.0 mi Calm Calm - N/A   Clear
8:12 PM 53.6 °F - 53.6 °F 100% 29.81 in 10.0 mi Calm Calm - N/A   Clear
8:31 PM 51.8 °F - 51.8 °F 100% 29.81 in 3.0 mi Calm Calm - N/A   Clear
8:51 PM 51.8 °F - 51.8 °F 100% 29.81 in 2.5 mi Calm Calm - N/A   Clear
9:11 PM 51.8 °F - 51.8 °F 100% 29.81 in 7.0 mi Calm Calm - N/A   Clear
9:31 PM 51.8 °F - 51.8 °F 100% 29.81 in 3.0 mi NE 3.5 mph - N/A   Clear
9:51 PM 51.8 °F - 51.8 °F 100% 29.80 in 0.8 mi Calm Calm - N/A   Mist
10:12 PM 51.8 °F - 51.8 °F 100% 29.80 in 1.0 mi Calm Calm - N/A   Mist
10:31 PM 51.8 °F - 51.8 °F 100% 29.81 in 10.0 mi Calm Calm - N/A Rain Light Rain
10:51 PM 51.8 °F - 51.8 °F 100% 29.85 in 10.0 mi NW 19.6 mph 26.5 mph N/A Rain , Thunderstorm Light Thunderstorms and Rain
11:12 PM 57.2 °F - 55.4 °F 94% 29.83 in 10.0 mi Calm Calm - N/A   Clear
11:31 PM 57.2 °F - 53.6 °F 88% 29.85 in 10.0 mi NE 3.5 mph - N/A Rain Rain
11:51 PM 57.2 °F - 53.6 °F 88% 29.84 in 10.0 mi Calm Calm - N/A   Scattered Clouds